CZ-4C DEB, 43408

Orbit data source: Space-Track

CZ-4C DEB, 43408 is space debris in SSO originally from a launch on Mon, 23 Sep 2013 UTC launched from the Taiyaun Space Center, China (TSC). Debris objects in space refer to the collection of defunct objects orbiting the Earth. Examples of debris include non-operational satellites, rocket bodies, and fragments generated from explosions, collisions, or faulty payload assembly.

Loading next visibility...
Identifier
43408, 2013-052C
Orbit
SSO
Country
Flag of CNCN / PRC
Related business
Manufacturer
SAST
Mission
Spacecraft
Bus & Motor
Unknown
Mass
Unknown
Launch date (UTC)
2013-09-23 (13 years ago)
Launch vehicle
Unknown
Launch site
Taiyaun Space Center, China (TSC)
Object type
Payload
Rocket body
Debris
Shape & HBR
Unknown shape, 0.1 m
Radar Cross Section
Small (<0.1 m²)

Expand to show TLE details & history
Last TLE update: 2 days ago

TLE from 2 days ago
0 CZ-4C DEB
1 43408U 13052C   26171.16736067  .00000332  00000-0  29082-3 0  9995
2 43408  98.7398 318.9643 0216571 262.2171  95.4349 13.81977084633422
Epoch: 2026-06-20T04:00Z
TLE epoch observation values (Epoch: 2026-06-20T04:00:59.961Z)
Latitude
0.00001°
Longitude
-9.67141°
Altitude
978.192 km
Speed
7.353 km/s
True Right ascension
21h 15m 51s
True Declination
0° 00' 00"
Sunlit
Object was in full shadow at epoch
Visualization orbit readout
Latitude
Unknown
Longitude
Unknown
Altitude
Unknown
Speed
Unknown
Apparent Right ascension
Unknown
Apparent Declination
Unknown
Sunlit
N/A
Visualization observer readout
Local Sidereal Time
00:27:31
Azimuth
Unknown
Elevation
Unknown
Doppler factor
Unknown
Orbital elements
Apogee altitude
1,112.887 km
Perigee altitude
795.297 km
Semi-major axis
7,332.229 km
Eccentricity
0.02166
Inclination
98.7398°
RAAN
318.9643°
Arg. of periapsis
262.2171°
True anomaly
97.89839°
Mean anomaly
95.4349°
Eccentric anomaly
96.66737°
Mean motion
3.45692 °/min
Orbital period
104.14 mins
BSTAR
0.00029082
Loading maneuver chart data...
Computing Atmospheric mass density...
Loading historical data...
Loading historical data...
Loading historical data...
Loading historical data...
Loading historical data...
Loading historical data...
Loading historical data...
Other satellites on launch #52 in the year 2013 (2013-09-23 UTC)

Documentation

Showing up to 5 results
|